Regional Weather Roundup
Issued by NWS Midland/Odessa, TX

Skip options and go directly to product.
Home | Oldest Version | Previous Version | Current Version | All | Text Only | Save Text | Print | Product List | Glossary Off

Skip product version selection by date and time.   

194
ASUS44 KMAF 312310
RWRMAF
MIDLAND AREA WEATHER ROUNDUP
NATIONAL WEATHER SERVICE MIDLAND TX
600 PM CDT TUE MAY 31 2016

...IN SOUTHWEST TEXAS AND SOUTHEAST NEW MEXICO...

CITY           SKY/WX    TMP DP  RH WIND       PRES   REMARKS
ALPINE         CLOUDY    74  59  58 S16G23    29.97R
ANDREWS        FAIR      82  52  35 SE6       29.87R
ARTESIA        CLOUDY    75  54  46 E15G21    29.87F
BIG SPRING     MOSUNNY   77  60  56 NE16G22   29.87R
CARLSBAD       LGT RAIN  67  58  72 N23       29.84R
DRYDEN           N/A     80  61  52 SW9       29.83R
FORT STOCKTON  NOT AVBL
GUAD PASS      NOT AVBL
HOBBS          PTSUNNY   84  45  24 VRB6      29.86F
MARFA          CLOUDY    78  56  46 S18G26    29.95R
MIDLAND AIRPK  PTSUNNY   88  50  27 NE12      29.85R
MIDLAND INTL   PTSUNNY   87  48  25 NE8       29.83R
ODESSA         PTSUNNY   85  52  32 VRB7      29.85R
PECOS          SUNNY     90  49  24 NW5       29.78R
PRESIDIO       LGT RAIN  82  52  34 W14       29.87R
SEMINOLE       PTSUNNY   80  56  44 NE12G24   29.88R
SNYDER           N/A     76  66  72 E18G29    29.86S
WINK           MOSUNNY   87  47  24 SE5       29.80R
$$
...OTHER STATIONS IN TEXAS...

CITY           SKY/WX    TMP DP  RH WIND       PRES   REMARKS
ABILENE        CLOUDY    67  67 100 SE10      29.84F
AMARILLO       SUNNY     76  50  40 E14       29.94S
AUSTIN         LGT RAIN  70  69  97 N9        29.77F
BROWNSVILLE    PTSUNNY   85  74  69 S17G28    29.74F
CORPUS CHRISTI TSTM      82  74  76 SE15G25   29.76R
DALLAS FTW     TSTM      70  66  87 W15G22    29.89R FOG
DEL RIO        CLOUDY    80  68  66 SE5       29.79S
EL PASO        CLOUDY    83  41  22 W17       29.85F
HOUSTON INT    CLOUDY    81  69  67 E9        29.82F
LUBBOCK        PTSUNNY   81  56  42 E14       29.88F
SAN ANGELO     MOSUNNY   86  63  45 S3        29.78R
SAN ANTONIO    LGT RAIN  71  68  90 E3        29.81F
WACO           TSTM      71  67  87 NW13      29.88R
WICHITA FALLS  NOT AVBL
$$
...OTHER LOCATIONS IN NEW MEXICO...

CITY           SKY/WX    TMP DP  RH WIND       PRES   REMARKS
ALAMAGORDO     MOSUNNY   84  37  18 NE10G21   29.86F
ALBUQUERQUE    CLOUDY    75  31  19 E15       29.97R
CANNON AFB     CLOUDY    77  53  42 SE12G20   29.92F
CLOVIS         CLOUDY    77  54  44 SE16G24   29.93S
HOLLOMAN AFB   CLOUDY    83  40  22 E18G24    29.83F
ROSWELL        CLOUDY    78  45  30 SE5       29.87F
RUIDOSO          N/A     64  39  39 S5        30.09F
SANTA FE       CLOUDY    68  36  30 SW18G25   30.03F
TRUTH OR CONSE PTSUNNY   81  30  15 VRB5      29.89F
TUCUMCARI      MOSUNNY   77  48  35 E15G24    29.90F
$$

USA.gov is the U.S. government's official web portal to all federal, state and local government web resources and services.